Regional Weather Roundup
Issued by NWS

Home | Current Version | Previous Version | Text Only | Print | Product List | Glossary Off
Versions: 1 2 3 4 5 6 7 8 9 10 11 12 13 14 15 16 17 18 19 20 21 22 23 24 25 26 27 28 29 30 31 32 33 34 35 36 37 38 39 40 41 42 43 44 45 46 47 48 49 50

000
ASUS43 KLSX 171807
RWRMO

WEATHER SUMMARY FOR MISSOURI
NATIONAL WEATHER SERVICE SPRINGFIELD MO
100 PM CDT TUE OCT 17 2017

NOTE: "FAIR" INDICATES FEW OR NO CLOUDS BELOW 12,000 FEET WITH NO
       SIGNIFICANT WEATHER AND/OR OBSTRUCTIONS TO VISIBILITY.
       CURRENT SKY AND/OR WEATHER CONDITIONS ARE NOT AVAILABLE FOR
       CHILLICOTHE AND FARMINGTON.

MOZ001>031-035>038-043-044-053-054-171900-
...NORTHERN AND WESTERN MISSOURI...

CITY           SKY/WX    TMP DP  RH WIND       PRES   REMARKS
KANSAS CTY INT SUNNY     69  45  41 S20       30.16F
6HR MIN TEMP:  44; 6HR MAX TEMP:  69;

KANSAS C DTWN  SUNNY     69  46  43 S15       30.16F
6HR MIN TEMP:  50; 6HR MAX TEMP:  69;

LEE`S SUMMIT   SUNNY     68  46  45 SW17      30.19F
6HR MIN TEMP:  49; 6HR MAX TEMP:  68;

ST JOSEPH      SUNNY     72  44  36 S14G24    30.13F
6HR MIN TEMP:  41; 6HR MAX TEMP:  72;

CHILLICOTHE      N/A     69  45  41 S13G20    30.18F
6HR MIN TEMP:  47; 6HR MAX TEMP:  69;

KIRKSVILLE     SUNNY     68  45  43 SW13      30.20F
6HR MIN TEMP:  46; 6HR MAX TEMP:  68;


$$
MOZ066>068-077>081-088>096-101>105-171900-
...SOUTHWEST MISSOURI...

CITY           SKY/WX    TMP DP  RH WIND       PRES   REMARKS
SPRINGFIELD    SUNNY     67  41  38 S14       30.27F
6HR MIN TEMP:  44; 6HR MAX TEMP:  67;

JOPLIN         SUNNY     68  45  43 S15G22    30.26F
6HR MIN TEMP:  47; 6HR MAX TEMP:  68;

BRANSON        PTSUNNY   66  37  34 SE6       30.32F

$$
MOZ032>034-039>042-045>050-055>058-069>072-171900-
...CENTRAL MISSOURI...

CITY           SKY/WX    TMP DP  RH WIND       PRES   REMARKS
COLUMBIA       SUNNY     65  44  46 S13       30.25F
6HR MIN TEMP:  43; 6HR MAX TEMP:  67;

JEFFERSON CITY SUNNY     66  42  41 S9        30.26F
6HR MIN TEMP:  42; 6HR MAX TEMP:  66;

ROLLA          SUNNY     65  40  39 SW10      30.29F
6HR MIN TEMP:  47; 6HR MAX TEMP:  65;

SEDALIA        SUNNY     69  46  43 SW16G24   30.24F
6HR MIN TEMP:  43; 6HR MAX TEMP:  69;

WHITEMAN AFB   SUNNY     68  44  43 SW17      30.18F
WARRENSBURG    SUNNY     68  43  40 S14G20    30.22F
OSAGE BEACH    SUNNY     68  43  40 S14       30.27F

$$
MOZ051-052-059>065-171900-
...EAST CENTRAL MISSOURI...

CITY           SKY/WX    TMP DP  RH WIND       PRES   REMARKS
ST LOUIS INTL  PTSUNNY   68  39  34 SW10      30.29F
6HR MIN TEMP:  50; 6HR MAX TEMP:  69;

SPIRIT OF STL  PTSUNNY   66  41  40 SW8       30.27F
6HR MIN TEMP:  38; 6HR MAX TEMP:  67;

ST CHARLES     MOSUNNY   66  40  38 S9        30.28F
6HR MIN TEMP:  40; 6HR MAX TEMP:  67;


$$
MOZ072>076-082>087-097>100-106>115-171900-
...SOUTH CENTRAL AND SOUTHEAST MISSOURI...

CITY           SKY/WX    TMP DP  RH WIND       PRES   REMARKS
CAPE GIRARDEAU SUNNY     66  39  37 SE10      30.31F
6HR MIN TEMP:  33; 6HR MAX TEMP:  66;

FARMINGTON     SUNNY     65  41  41 S12       30.31F
6HR MIN TEMP:  35; 6HR MAX TEMP:  65;

POPLAR BLUFF   MOSUNNY   65  40  39 VRB3      30.32F
6HR MIN TEMP:  36; 6HR MAX TEMP:  66;

WEST PLAINS    SUNNY     64  36  35 SW8       30.32F
6HR MIN TEMP:  41; 6HR MAX TEMP:  64;


$$


USA.gov is the U.S. government's official web portal to all federal, state and local government web resources and services.